Location: Béaulencourt
(50.0796°N, 2.8795°E)
Time: 12:56:41
(UTC+00:00)

Dummy Sat-02 - Pass Details

Date: 23 April 2026
Orbit: 472 x 483 km, 86.3° (Epoch: 12 May)

Event Time Altitude Azimuth Distance (km) Brightness Sun altitude
Exits shadow 21:06:01 - 216° (SW) 2,565 8.1 -18.0°
Rises 21:06:07 0° 216° (SW) 2,526 8.1 -18.0°
Reaches altitude 10° 21:08:34 10° 233° (SW) 1,651 7.3 -18.3°
Maximum altitude 21:11:21 21° 284° (WNW) 1,127 7.0 -18.5°
Drops below altitude 10° 21:14:09 10° 335° (NNW) 1,658 8.4 -18.8°
Sets 21:16:38 0° 352° (N) 2,540 9.2 -19.1°
